Location: Kershaw
(34.5481°N, 80.5823°W)
Time: 12:53:55
(UTC+00:00)

Tiros 1 despin weight - Pass Details

Date: 04 October 2022
Orbit: 590 x 637 km, 48.2° (Epoch: 25 November)

Event Time Altitude Azimuth Distance (km) Brightness Sun altitude
Rises 23:39:25 0° 305° (NW) 2,867 ? -8.5°
Reaches altitude 10° 23:42:43 10° 330° (NNW) 1,974 ? -9.2°
Maximum altitude 23:45:13 14° 4° (N) 1,706 ? -9.7°
Drops below altitude 10° 23:47:44 10° 37° (NE) 1,991 ? -10.2°
Enters shadow 23:49:03 - 50° (NE) 2,303 ? -10.5°
Sets 23:51:05 0° 62° (ENE) 2,908 - -10.9°
